(54164) = 2000 HH54

Discovered at Socorro on 2000-04-29 by LINEAR.

Orbit

Orbit type: Main Belt

Note: WebGL enabled browser required.

epoch2024-03-31.0
epoch JD2460400.5
perihelion date2021-12-18.21680
perihelion JD2459566.71680
argument of perihelion (°)135.73034
ascending node (°)68.98258
inclination (°)3.13445
eccentricity0.1616896
perihelion distance (AU)1.9851587
Tisserand w.r.t. Jupiter3.5
ΔV w.r.t. Earth (km/sec)8.8
semimajor axis (AU)2.3680474
mean anomaly (°)225.51291
mean daily motion (°/day)0.27046950
aphelion distance (AU)2.751
period (years)3.64
P-vector [x]-0.90743914
P-vector [y]-0.39909948
P-vector [z]-0.13142990
Q-vector [x]0.41707191
Q-vector [y]-0.81752653
Q-vector [z]-0.39711634
absolute magnitude15.46
phase slope0.15
uncertainty0
referenceMPEC 2024-E73
observations used1469
oppositions20
arc length (days)10163
first opposition used1996
last opposition used2024
residual rms (arc-secs)0.70
perturbers coarse indicatorM-v
perturbers precise indicator003Ek
first observation date used1996-05-08.0
last observation date used2024-03-05.0
computer nameMPCLINUX
JD of orbit computation2456877.842819
perihelion JD uncertainty (days)4.5236E-05
argument of perihelion uncertainty (°)6.9387E-05
ascending node uncertainty (°)6.8496E-05
inclination uncertainty (°)4.0100E-06
eccentricity uncertainty 4.0169E-08
perihelion distance uncertainty (AU)9.7820E-08
Minimum Orbit Intersection Distances (in AU)
for orbit epoch: 2460400.5, reference: E2024-E73
Mercury1.54835
Venus1.2633
Earth0.98269
Mars0.35928
Jupiter2.20382
Saturn6.43783
Uranus16.3374
Neptune27.0743

Observations

1494 total observations over interval: 1996 05 08.53530 – 2024 03 05.110947
These data are available for download (format description).

Date (UT) J2000 RA J2000 Dec Magn Location Ref
1996 05 08.53530 10 34 00.68 +13 14 10.5   327 – Peking Observatory, Xinglong Station MPS 20914
1996 05 08.55072 10 34 01.43 +13 14 03.9   327 – Peking Observatory, Xinglong Station MPS 20914
1996 05 08.56558 10 34 02.14 +13 13 57.2 18.9 V 327 – Peking Observatory, Xinglong Station MPS 20914
1998 12 17.18792 04 14 25.45 +21 33 15.4 19.3   704 – Lincoln Laboratory ETS, New Mexico MPS 20914
1998 12 17.21108 04 14 24.15 +21 33 11.2 18.8   704 – Lincoln Laboratory ETS, New Mexico MPS 20914
1998 12 17.23432 04 14 22.70 +21 33 09.0 19.6   704 – Lincoln Laboratory ETS, New Mexico MPS 20914
1998 12 17.25742 04 14 21.26 +21 33 06.9 19.3   704 – Lincoln Laboratory ETS, New Mexico MPS 20914
1998 12 17.28068 04 14 19.48 +21 33 07.0 19.9   704 – Lincoln Laboratory ETS, New Mexico MPS 20914
2000 04 29.41139 16 00 52.58 -18 40 34.8 18.1   704 – Lincoln Laboratory ETS, New Mexico MPS 14611
2000 04 29.42371 16 00 52.00 -18 40 35.0 17.5   704 – Lincoln Laboratory ETS, New Mexico MPS 14611
2000 04 29.43597 16 00 51.43 -18 40 34.9 17.7   704 – Lincoln Laboratory ETS, New Mexico MPS 14611
2000 04 29.44833 16 00 50.84 -18 40 34.4 17.8   704 – Lincoln Laboratory ETS, New Mexico MPS 14611
2000 04 29.46171 16 00 50.21 -18 40 34.7 17.9   704 – Lincoln Laboratory ETS, New Mexico MPS 14611
2000 05 06.35211 15 55 13.01 -18 37 48.2 18.1   704 – Lincoln Laboratory ETS, New Mexico MPS 14611
2000 05 06.36422 15 55 12.31 -18 37 47.5 18.3   704 – Lincoln Laboratory ETS, New Mexico MPS 14611
2000 05 06.37637 15 55 11.64 -18 37 47.4 18.4   704 – Lincoln Laboratory ETS, New Mexico MPS 14611
2000 05 06.38850 15 55 10.97 -18 37 46.9 18.9   704 – Lincoln Laboratory ETS, New Mexico MPS 14611
2000 05 07.35928 15 54 18.60 -18 37 13.4 18.0   704 – Lincoln Laboratory ETS, New Mexico MPS 14611
2000 05 07.36887 15 54 18.03 -18 37 13.4 18.1   704 – Lincoln Laboratory ETS, New Mexico MPS 14611
2000 05 07.37846 15 54 17.47 -18 37 13.1 18.3   704 – Lincoln Laboratory ETS, New Mexico MPS 14611
2000 05 07.38806 15 54 16.91 -18 37 12.4 18.3   704 – Lincoln Laboratory ETS, New Mexico MPS 14611
2000 05 07.39765 15 54 16.36 -18 37 12.2 18.3   704 – Lincoln Laboratory ETS, New Mexico MPS 14611
2000 05 10.40214 15 51 28.25 -18 35 16.5 17.5   704 – Lincoln Laboratory ETS, New Mexico MPS 14611
2000 05 10.41362 15 51 27.53 -18 35 16.3 17.8   704 – Lincoln Laboratory ETS, New Mexico MPS 14611
2000 05 10.42503 15 51 26.84 -18 35 15.8 17.6   704 – Lincoln Laboratory ETS, New Mexico MPS 14611
2000 05 10.43645 15 51 26.15 -18 35 15.4 17.5   704 – Lincoln Laboratory ETS, New Mexico MPS 14611
2000 05 11.32327 15 50 35.52 -18 34 38.3 17.4   704 – Lincoln Laboratory ETS, New Mexico MPS 14611
2000 05 11.33485 15 50 34.79 -18 34 37.3 17.6   704 – Lincoln Laboratory ETS, New Mexico MPS 14611
2000 05 11.34643 15 50 34.07 -18 34 37.6 17.6   704 – Lincoln Laboratory ETS, New Mexico MPS 14611
2000 05 11.35802 15 50 33.40 -18 34 36.6 17.0   704 – Lincoln Laboratory ETS, New Mexico MPS 14611
2000 05 11.36960 15 50 32.66 -18 34 36.6 17.1   704 – Lincoln Laboratory ETS, New Mexico MPS 14611
2000 05 28.24026 15 34 08.52 -18 22 00.4 17.8   704 – Lincoln Laboratory ETS, New Mexico MPS 15841
2000 05 28.25363 15 34 07.76 -18 22 00.0 17.9   704 – Lincoln Laboratory ETS, New Mexico MPS 15841
2000 05 28.26701 15 34 06.99 -18 21 59.7 17.8   704 – Lincoln Laboratory ETS, New Mexico MPS 15841
2000 05 28.28040 15 34 06.28 -18 22 00.6 18.3   704 – Lincoln Laboratory ETS, New Mexico MPS 15841
2000 05 28.29380 15 34 05.45 -18 21 58.7 19.9   704 – Lincoln Laboratory ETS, New Mexico MPS 15841
2000 05 29.22770 15 33 15.36 -18 21 25.4 17.6   704 – Lincoln Laboratory ETS, New Mexico MPS 15841
2000 05 29.24185 15 33 14.58 -18 21 24.6 17.8   704 – Lincoln Laboratory ETS, New Mexico MPS 15841
2000 05 29.24542 15 33 14.39 -18 21 24.4 17.6   704 – Lincoln Laboratory ETS, New Mexico MPS 15841
2000 05 29.25592 15 33 13.77 -18 21 24.2 17.6   704 – Lincoln Laboratory ETS, New Mexico MPS 15841
2000 05 29.25876 15 33 13.64 -18 21 24.3 18.3   704 – Lincoln Laboratory ETS, New Mexico MPS 15841
2000 05 29.27104 15 33 12.90 -18 21 23.9 18.0   704 – Lincoln Laboratory ETS, New Mexico MPS 15841
2000 05 29.27208 15 33 12.87 -18 21 23.6 18.1   704 – Lincoln Laboratory ETS, New Mexico MPS 15841
2000 05 29.28520 15 33 12.08 -18 21 23.1 18.0   704 – Lincoln Laboratory ETS, New Mexico MPS 15841
2000 05 29.28563 15 33 12.11 -18 21 22.8 18.0   704 – Lincoln Laboratory ETS, New Mexico MPS 15841
2000 05 29.29897 15 33 11.40 -18 21 21.0 18.5   704 – Lincoln Laboratory ETS, New Mexico MPS 15841
2000 05 30.22933 15 32 22.47 -18 20 52.0 17.5   704 – Lincoln Laboratory ETS, New Mexico MPS 15841
2000 05 30.24265 15 32 21.74 -18 20 51.8 18.0   704 – Lincoln Laboratory ETS, New Mexico MPS 15841
2000 05 30.25595 15 32 21.00 -18 20 51.3 17.6   704 – Lincoln Laboratory ETS, New Mexico MPS 15841
2000 05 30.26925 15 32 20.26 -18 20 51.0 17.4   704 – Lincoln Laboratory ETS, New Mexico MPS 15841
2000 05 30.28264 15 32 19.56 -18 20 50.2 17.7   704 – Lincoln Laboratory ETS, New Mexico MPS 15841
2000 06 01.40545 15 30 31.53 -18 19 48.4 17.9   608 – Haleakala-AMOS MPS 15841
2000 06 01.41610 15 30 30.95 -18 19 48.2 17.9   608 – Haleakala-AMOS MPS 15841
2000 06 01.42661 15 30 30.41 -18 19 47.8 17.9   608 – Haleakala-AMOS MPS 15841
2000 06 07.23373 15 26 08.05 -18 18 26.0 17.8   704 – Lincoln Laboratory ETS, New Mexico MPS 15841
2000 06 07.24674 15 26 07.50 -18 18 26.3 17.7   704 – Lincoln Laboratory ETS, New Mexico MPS 15841
2000 06 07.25972 15 26 06.92 -18 18 26.7 18.1   704 – Lincoln Laboratory ETS, New Mexico MPS 15841
2000 06 07.27272 15 26 06.31 -18 18 27.0 18.2   704 – Lincoln Laboratory ETS, New Mexico MPS 15841
2000 06 07.28556 15 26 05.77 -18 18 26.0 18.0   704 – Lincoln Laboratory ETS, New Mexico MPS 15841
2001 08 27.41319 01 11 38.44 +03 08 19.4 19.8 R 699 – Lowell Observatory-LONEOS MPS 34268
2001 08 27.43208 01 11 37.96 +03 08 15.8   699 – Lowell Observatory-LONEOS MPS 34268
2001 08 27.45103 01 11 37.54 +03 08 13.2   699 – Lowell Observatory-LONEOS MPS 34268
2001 08 27.47006 01 11 37.05 +03 08 08.3   699 – Lowell Observatory-LONEOS MPS 34268
2001 09 11.39597 01 03 33.39 +02 08 47.8 19.2 R 699 – Lowell Observatory-LONEOS MPS 34268
2001 09 11.41648 01 03 32.47 +02 08 41.7   699 – Lowell Observatory-LONEOS MPS 34268
2001 09 11.43702 01 03 31.54 +02 08 36.6   699 – Lowell Observatory-LONEOS MPS 34268
2001 09 11.45754 01 03 30.65 +02 08 29.8   699 – Lowell Observatory-LONEOS MPS 34268
2001 09 16.39675 00 59 47.52 +01 43 50.6 19.0   704 – Lincoln Laboratory ETS, New Mexico MPS 35688
2001 09 16.41779 00 59 46.49 +01 43 44.3 19.5   704 – Lincoln Laboratory ETS, New Mexico MPS 35688
2001 09 16.45325 00 59 44.75 +01 43 33.4 19.4   704 – Lincoln Laboratory ETS, New Mexico MPS 35688
2001 09 16.47280 00 59 43.76 +01 43 27.1 19.5   704 – Lincoln Laboratory ETS, New Mexico MPS 35688
2001 09 19.32328 00 57 23.80 +01 28 29.7 19.8   704 – Lincoln Laboratory ETS, New Mexico MPS 35688
2001 09 19.33741 00 57 22.97 +01 28 24.9 19.9   704 – Lincoln Laboratory ETS, New Mexico MPS 35688
2001 09 19.35155 00 57 22.29 +01 28 19.5 20.0   704 – Lincoln Laboratory ETS, New Mexico MPS 35688
2001 09 21.32480 00 55 40.99 +01 17 43.9 18.5   704 – Lincoln Laboratory ETS, New Mexico MPS 35688
2001 09 21.34393 00 55 39.96 +01 17 37.5 18.3   704 – Lincoln Laboratory ETS, New Mexico MPS 35688
2001 09 21.36655 00 55 38.73 +01 17 29.7 19.1   704 – Lincoln Laboratory ETS, New Mexico MPS 35688
2001 09 21.38075 00 55 37.95 +01 17 24.5 18.9   704 – Lincoln Laboratory ETS, New Mexico MPS 35688
2001 09 21.39495 00 55 37.22 +01 17 20.8 18.6   704 – Lincoln Laboratory ETS, New Mexico MPS 35688
2001 10 06.40584 00 41 45.38 -00 04 18.2 19.7   644 – Palomar Mountain/NEAT MPS 37590
2001 10 06.41651 00 41 44.76 -00 04 21.4 19.9   644 – Palomar Mountain/NEAT MPS 37590
2001 10 06.42708 00 41 44.17 -00 04 24.7 19.8   644 – Palomar Mountain/NEAT MPS 37590
2001 10 07.36030 00 40 51.61 -00 09 14.9 19.5   644 – Palomar Mountain/NEAT MPS 37590
2001 10 07.38165 00 40 50.37 -00 09 21.7 19.8   644 – Palomar Mountain/NEAT MPS 37590
2001 10 07.40294 00 40 49.17 -00 09 28.3 19.8   644 – Palomar Mountain/NEAT MPS 37590
